Regional Weather Roundup
Issued by NWS

Home | Current Version | Previous Version | Text Only | Print | Product List | Glossary Off
Versions: 1 2 3 4 5 6 7 8 9 10 11 12 13 14 15 16 17 18 19 20 21 22 23 24 25 26 27 28 29 30 31 32 33 34 35 36 37 38 39 40 41 42 43 44 45 46 47 48 49 50

045
ASUS44 KJAN 262210
RWRMS

MISSISSIPPI HOURLY WEATHER ROUNDUP
NATIONAL WEATHER SERVICE JACKSON MS
400 PM CST WED NOV 26 2014

NOTE: "FAIR: INDICATES FEW OR NO CLOUDS BELOW 12,000 FEET WITH NO
SIGNIFICANT WEATHER AND/OR OBSTRUCTIONS TO VISIBILITY.

MSZ001>002-007>008-010>013-018>021-025>028-034>036-262300-
NORTHWEST MISSISSIPPI

CITY           SKY/WX    TMP DP  RH WIND       PRES   REMARKS
CLARKSDALE     FAIR      54  36  50 W16       30.07R
CLEVELAND      FAIR      55  40  56 NW12      30.07R
GREENWOOD      PTCLDY    62  36  37 W13G20    30.05R
GREENVILLE     CLEAR     59  36  42 N13       30.07R
GRENADA        FAIR      55  37  50 W7G20     30.05R
OLIVE BRANCH   PTCLDY    48  37  66 W8G23     30.04R
OXFORD         FAIR      54  34  47 W10G21    30.03S
TUNICA         PTCLDY    52  36  54 NW13      30.07R
$$

MSZ003>006-009-014>017-022>024-029>033-037>039-262300-
NORTHEAST MISSISSIPPI

CITY           SKY/WX    TMP DP  RH WIND       PRES   REMARKS
COLUMBUS AFB   MOCLDY    58  31  36 S5        30.03R
CORINTH        LGT RAIN  48  32  53 VRB6G13   30.01S
GOLDN TRIANGLE MOCLDY    61  32  33 SW9G16    30.02R
STARKVILLE     FAIR      59  32  36 SW6       30.03R
TUPELO         CLOUDY    53  32  44 SW6       30.01R
$$

MSZ040-058-262300-
CENTRAL MISSISSIPPI

CITY           SKY/WX    TMP DP  RH WIND       PRES   REMARKS
JACKSON INTL   PTCLDY    66  32  28 W13G26    30.06R
JACKSON HAWKNS CLEAR     66  33  29 W17G32    30.08R
MERIDIAN KEY   CLEAR     61  31  32 SW14G23   30.07S
MERIDIAN NAS   CLEAR     62  30  29 SW10      30.07F
RAYMOND        FAIR      66  61  82 W16G23    30.08R
VICKSBURG      SUNNY     67  35  30 W9G20     30.09R
$$

MSZ059>079-262300-
SOUTH MISSISSIPPI

CITY           SKY/WX    TMP DP  RH WIND       PRES   REMARKS
BROOKHAVEN     FAIR      66  37  34 SW14      30.12R
HATTIESBURG    CLEAR     64  35  34 SW14      30.13S
MCCOMB         SUNNY     66  36  32 SW17G26   30.12S
NATCHEZ        SUNNY     66  37  34 SW14G28   30.13R
PINE BELT      CLEAR     64  34  32 SW10      30.13R
$$

MSZ080>082-262300-
COASTAL MISSISSIPPI

CITY           SKY/WX    TMP DP  RH WIND       PRES   REMARKS
BAY ST LOUIS   SUNNY     63  34  34 S10       30.17F
BILOXI         CLEAR     57  43  59 SW12      30.17F
PASCAGOULA     CLEAR     56  38  50 VRB7      30.18S
GULFPORT       CLEAR     56  42  59 S7        30.17F
$$



USA.gov is the U.S. government's official web portal to all federal, state and local government web resources and services.